Flag for Denmark Weather past 2 weeks in Copenhagen, Denmark

Now
57 °F

Broken clouds.


Feels Like: 55 °F
Forecast: 53 / 61 °F
Wind: 8 mph from Southwest

Location: Koebenhavn-Kastrup Airport

Current Time: Sep 4, 2015 at 9:19:14 PM

Latest Report: Sep 4, 2015 at 8:50 PM


Visibility: N/A

Pressure: 29.77 "Hg

Humidity: 82%

Dew point: 52 °F

Location of CopenhagenLocation

Historic Weather in Copenhagen — Graph

°F

Copenhagen temperature yesterday

Maximum temperature yesterday: 64 °F (at 12:20 PM)
Minimum temperature yesterday: 55 °F (at 2:50 AM)
Average temperature yesterday: 58 °F

Past Weeks' High & Low Weather Summary

 TemperatureHumidityPressure
High75 °F (Aug 21, 1:50 PM)100% (Aug 25, 6:50 AM)30.36 "Hg (Aug 25, 6:50 AM)
Low52 °F (Sep 4, 3:20 AM)38% (Aug 22, 1:50 PM)29.65 "Hg (Sep 1, 3:50 AM)
Average64 °F77%29.96 "Hg
* Reported Aug 20 8:20 PM — Sep 4 8:20 PM, Copenhagen, Weather by CustomWeather, © 2015

Note: Actual official high and low records may vary slightly from our data, if they occured in-between our weather recording intervals... More about our weather records

Advertising

Copenhagen weather history for previous 24 hours

 ConditionsComfort  
Time TempWeatherWind HumidityBarometerVisibility
8:20 PM
Fri, Sep 4
57 °FBroken clouds.7 mph88%29.77 "HgN/A
7:50 PM55 °FSprinkles. Broken clouds.5 mph94%29.77 "HgN/A
7:20 PM55 °FSprinkles. Broken clouds.12 mph88%29.80 "Hg4 mi
6:50 PM57 °FBroken clouds.10 mph77%29.80 "HgN/A
6:20 PM57 °FSprinkles. Broken clouds.17 mph77%29.80 "HgN/A
5:50 PM61 °FSprinkles. Partly sunny.8 mph63%29.80 "HgN/A
5:20 PM61 °FPartly sunny.14 mph72%29.80 "HgN/A
4:50 PM61 °FPartly sunny.15 mph68%29.80 "HgN/A
4:20 PM61 °FPartly sunny.13 mph68%29.83 "HgN/A
3:20 PM64 °FScattered clouds.14 mph64%29.83 "HgN/A
2:50 PM64 °FScattered clouds.12 mph60%29.86 "HgN/A
2:20 PM63 °FPartly sunny.12 mph73%29.86 "HgN/A
1:50 PM61 °FPartly sunny.14 mph72%29.86 "HgN/A
1:20 PM61 °FPartly sunny.14 mph72%29.86 "HgN/A
12:50 PM61 °FPartly sunny.14 mph68%29.86 "HgN/A
12:20 PM59 °FBroken clouds.15 mph77%29.86 "HgN/A
11:50 AM59 °FBroken clouds.13 mph72%29.86 "HgN/A
11:20 AM59 °FPartly sunny.12 mph72%29.86 "HgN/A
10:50 AM57 °FBroken clouds.9 mph77%29.89 "HgN/A
10:20 AM57 °FBroken clouds.9 mph77%29.89 "HgN/A
9:50 AM57 °FThunderstorms. Broken clouds.7 mph88%29.86 "HgN/A
9:20 AM57 °FThunderstorms. Partly sunny.8 mph82%29.89 "HgN/A
8:50 AM55 °FThunderstorms. Broken clouds.12 mph88%29.89 "HgN/A
8:20 AM59 °FThunderstorms. Broken clouds.12 mph82%29.86 "HgN/A
7:50 AM57 °FBroken clouds.10 mph88%29.86 "HgN/A
7:20 AM57 °FBroken clouds.8 mph88%29.86 "HgN/A
6:50 AM57 °FPartly cloudy.8 mph88%29.89 "HgN/A
6:20 AM55 °FPassing clouds.6 mph88%29.89 "HgN/A
5:50 AM55 °FPassing clouds.7 mph94%29.89 "HgN/A
5:20 AM55 °FPassing clouds.7 mph94%29.89 "HgN/A
4:50 AM55 °FPassing clouds.6 mph88%29.89 "HgN/A
4:20 AM55 °FPassing clouds.5 mph82%29.89 "HgN/A
3:50 AM54 °FClear.5 mph88%29.89 "Hg10 mi
3:20 AM52 °FPassing clouds.6 mph94%29.89 "HgN/A
2:50 AM54 °FPassing clouds.5 mph88%29.89 "HgN/A
2:20 AM55 °FPassing clouds.5 mph88%29.92 "HgN/A
1:50 AM55 °FPassing clouds.6 mph88%29.92 "HgN/A
1:20 AM55 °FPassing clouds.6 mph82%29.92 "HgN/A
12:50 AM54 °FPassing clouds.5 mph88%29.92 "HgN/A
12:20 AM54 °FPassing clouds.5 mph88%29.92 "HgN/A
11:20 PM
Thu, Sep 3
55 °FPassing clouds.5 mph82%29.92 "HgN/A
10:50 PM57 °FPassing clouds.6 mph82%29.92 "HgN/A
10:20 PM57 °FPassing clouds.6 mph82%29.92 "HgN/A
9:50 PM55 °FPassing clouds.6 mph88%29.92 "HgN/A
9:20 PM55 °FPassing clouds.6 mph82%29.92 "HgN/A
Weather by CustomWeather, © 2015

See weather overviewHow to use our weather pages